Location: Catacaguana
(10.4120°N, 66.7591°W)
Time: 04:23:33
(UTC+00:00)

Cosmos 1400 Rocket - Pass Details

Date: 27 May 2022
Orbit: 518 x 565 km, 81.2° (Epoch: 24 June)

Event Time Altitude Azimuth Distance (km) Brightness Sun altitude
Rises 00:01:23 0° 352° (N) 2,660 6.8 -18.2°
Reaches altitude 10° 00:03:31 10° 351° (N) 1,778 5.9 -18.6°
Maximum altitude 00:07:26 79° 265° (W) 552 2.8 -19.5°
Enters shadow 00:09:22 29° 182° (S) 1,005 3.9 -19.9°
